Weather History for Monte Terminillo, Italy

Change the Weather History Date:

Tuesday, January 21, 2014

  Actual Average Record
Temperature  
Mean Temperature 31 °F -  
Max Temperature 32 °F 31 °F 46 °F (1999)
Min Temperature 30 °F 24 °F 15 °F (1998)
Degree Days  
Heating Degree Days 34    
Moisture  
Dew Point 31 °F    
Average Humidity 100    
Maximum Humidity 100    
Minimum Humidity 97    
Precipitation  
Precipitation 0.00 in - - ()
Sea Level Pressure  
Sea Level Pressure 29.53 in    
Wind  
Wind Speed 3 mph ()    
Max Wind Speed 9 mph    
Max Gust Speed -    
Visibility 2.3 miles    
Events Fog , Snow    
Averages and records for this station are not official NWS values.
T = Trace of Precipitation, MM = Missing Value Source: Averaged Metar Reports

Daily Weather History Graph

Daily Weather History Graph

Search for Another Location

Airport:

Trip Planner

Search our weather history database for the weather conditions in past years. The results will help you decide how hot, cold, wet, or windy it might be!

Date:

Astronomy

Jan. 21, 2014 Rise Set
Actual Time 7:31 AM CET 5:07 PM CET
Civil Twilight 7:00 AM CET 5:38 PM CET
Nautical Twilight 6:26 AM CET 6:12 PM CET
Astronomical Twilight 5:53 AM CET 6:46 PM CET
Moon 10:31 PM CET (1/21) 9:45 AM CET (1/21)
Length of Visible Light 10h 37m
Length of Day
9h 35m
Waning Gibbous, 77% of the Moon is Illuminated
Jan 21
Waning Gibbous
Jan 24
Last Quarter
Jan 30
New
Feb 6
First Quarter
Feb 15
Full

Hourly Weather History & Observations

Time (CET) Temp. Dew Point Humidity Pressure Visibility Wind Dir Wind Speed Gust Speed Precip Events Conditions
12:00 AM 30 °F 30 °F 100%  in 7 mi Calm Calm - -   Mostly Cloudy
12:55 AM 30.2 °F 30.2 °F 100% 29.44 in - North - - N/A   Mostly Cloudy
1:00 AM 30 °F 30 °F 99%  in 6 mi ENE 6.9 mph - -  
1:55 AM 30.2 °F 30.2 °F 100% 29.44 in - North - - N/A   Mostly Cloudy
2:00 AM 30 °F 30 °F 99%  in 7 mi NE 6.9 mph - -   Mostly Cloudy
2:55 AM 30.2 °F 30.2 °F 100% 29.44 in - North - - N/A   Mostly Cloudy
3:00 AM 30 °F 30 °F 99%  in 7 mi NE 9.2 mph - -   Mostly Cloudy
3:55 AM 30.2 °F 30.2 °F 100% 29.44 in - North - - N/A Fog Light Freezing Fog
4:00 AM 30 °F 30 °F 100%  in 0 mi NE 6.9 mph - - Snow Light Snow
4:55 AM 30.2 °F 30.2 °F 100% 29.44 in 0.0 mi North - - N/A Fog Light Freezing Fog
5:00 AM 31 °F 31 °F 97%  in 0 mi NE 5.8 mph - - Fog Heavy Fog
5:55 AM 30.2 °F 30.2 °F 100% 29.44 in 0.0 mi North - - N/A Fog Light Freezing Fog
6:00 AM 30 °F 30 °F 100%  in 0 mi NE 6.9 mph - - Fog Heavy Fog
6:55 AM 30.2 °F 30.2 °F 100% 29.44 in - North - - N/A   Mostly Cloudy
7:00 AM 30 °F 30 °F 100%  in 7 mi NE 5.8 mph - -  
7:55 AM 30.2 °F 30.2 °F 100% 29.47 in - North - - N/A   Partly Cloudy
8:00 AM 31 °F 31 °F 97%  in 7 mi NE 4.6 mph - -   Scattered Clouds
8:55 AM 30.2 °F 30.2 °F 100% 29.47 in - North - - N/A   Partly Cloudy
9:00 AM 30 °F 30 °F 100%  in 7 mi Calm Calm - -   Scattered Clouds
9:55 AM 30.2 °F 30.2 °F 100% 29.50 in - North - - N/A   Partly Cloudy
10:00 AM 30 °F 30 °F 100%  in 9 mi Calm Calm - -   Scattered Clouds
10:55 AM 32.0 °F 32.0 °F 100% 29.50 in - North - - N/A   Partly Cloudy
11:00 AM 31 °F 31 °F 100%  in 9 mi Calm Calm - -   Scattered Clouds
11:55 AM 32.0 °F 32.0 °F 100% 29.53 in - North - - N/A   Partly Cloudy
12:00 PM 32 °F 32 °F 98%  in 9 mi Calm Calm - -   Scattered Clouds
12:55 PM 32.0 °F 32.0 °F 100% 29.53 in - North - - N/A   Scattered Clouds
1:00 PM 32 °F 32 °F 100%  in 9 mi Calm Calm - -  
1:55 PM 32.0 °F 32.0 °F 100% 29.53 in 0.0 mi North - - N/A Fog Fog
2:00 PM 32 °F 32 °F 100%  in 0 mi Calm Calm - - Fog Heavy Fog
2:55 PM 32.0 °F 32.0 °F 100% 29.53 in 0.0 mi North - - N/A Fog Fog
3:00 PM 32 °F 32 °F 100%  in 0 mi Calm Calm - - Fog Heavy Fog
3:55 PM 32.0 °F 32.0 °F 100% 29.53 in 0.0 mi North - - N/A Fog Fog
4:00 PM 32 °F 32 °F 100%  in 0 mi Calm Calm - - Fog Heavy Fog
4:55 PM 32.0 °F 32.0 °F 100% 29.56 in 0.0 mi North - - N/A Fog Fog
5:00 PM 32 °F 32 °F 100%  in 0 mi Calm Calm - - Fog Heavy Fog
5:55 PM 32.0 °F 32.0 °F 100% 29.59 in 0.0 mi North - - N/A Fog Fog
6:00 PM 32 °F 32 °F 100%  in 0 mi Calm Calm - - Fog Heavy Fog
6:55 PM 32.0 °F 32.0 °F 100% 29.59 in 0.0 mi North - - N/A Fog Fog
7:00 PM 32 °F 32 °F 100%  in 0 mi Calm Calm - -  
7:55 PM 32.0 °F 32.0 °F 100% 29.62 in 0.0 mi North - - N/A Fog Light Freezing Fog
8:00 PM 32 °F 32 °F 98%  in 0 mi Calm Calm - - Fog Heavy Fog
8:55 PM 32.0 °F 32.0 °F 100% 29.65 in 0.0 mi North - - N/A Fog Light Freezing Fog
9:00 PM 31 °F 31 °F 100%  in 0 mi Calm Calm - - Fog Heavy Fog
9:55 PM 32.0 °F 32.0 °F 100% 29.65 in 0.0 mi North - - N/A Fog Light Freezing Fog
10:00 PM 31 °F 31 °F 100%  in 0 mi Calm Calm - - Fog Heavy Fog
10:55 PM 32.0 °F 32.0 °F 100% 29.68 in 0.0 mi North - - N/A Fog Light Freezing Fog
11:00 PM 31 °F 31 °F 100%  in 0 mi Calm Calm - - Fog Heavy Fog
11:55 PM 30.2 °F 30.2 °F 100% 29.71 in 0.0 mi North - - N/A Fog Light Freezing Fog